This is the latest recevied weather packets stored in our database for station/object IZ1UQG-1. If no packets are shown the sender has not sent any weather packets the latest 10 day(s).
| Time | Temp. | Humidity | Pressure | Rain* | Wind** | Luminosity | Snow |
|---|---|---|---|---|---|---|---|
| 1777817939 | 27.78° C | 33% | 1016.1 hPa | 88.39 mm | - | - | - |
| 1777817639 | 27.78° C | 31% | 1016 hPa | 94.74 mm | - | - | - |
| 1777817339 | 27.78° C | 33% | 1016.2 hPa | 89.41 mm | - | - | - |
| 1777817039 | 27.22° C | 32% | 1016 hPa | 92.71 mm | - | - | - |
| 1777816739 | 27.22° C | 32% | 1016.2 hPa | 91.95 mm | - | - | - |
| 1777816439 | 27.78° C | 32% | 1016.2 hPa | 95.25 mm | - | - | - |
| 1777816139 | 27.78° C | 33% | 1016.2 hPa | 96.27 mm | - | - | - |
| 1777815839 | 27.78° C | 33% | 1016.3 hPa | 90.42 mm | - | - | - |
| 1777815539 | 27.78° C | 32% | 1016.3 hPa | 86.36 mm | - | - | - |
| 1777815239 | 27.78° C | 32% | 1016.3 hPa | 98.81 mm | - | - | - |
| 1777814939 | 28.33° C | 32% | 1016.4 hPa | 91.95 mm | - | - | - |
| 1777814639 | 28.33° C | 33% | 1016.3 hPa | 96.77 mm | - | - | - |
| 1777814339 | 28.33° C | 33% | 1016.3 hPa | 83.31 mm | - | - | - |
| 1777814039 | 28.33° C | 32% | 1016.4 hPa | 96.27 mm | - | - | - |
| 1777813739 | 28.89° C | 33% | 1016.4 hPa | 91.95 mm | - | - | - |
| 1777813439 | 28.89° C | 33% | 1016.6 hPa | 94.23 mm | - | - | - |
| 1777813139 | 28.89° C | 31% | 1016.4 hPa | 88.9 mm | - | - | - |
| 1777812839 | 28.89° C | 31% | 1016.7 hPa | 103.89 mm | - | - | - |
| 1777812539 | 28.89° C | 31% | 1016.7 hPa | 112.78 mm | - | - | - |
| 1777812239 | 28.33° C | 33% | 1016.6 hPa | 124.21 mm | - | - | - |
| 1777811939 | 28.33° C | 33% | 1016.7 hPa | 118.62 mm | - | - | - |
| 1777811639 | 28.33° C | 32% | 1016.6 hPa | 125.22 mm | - | - | - |
| 1777811339 | 28.33° C | 33% | 1016.5 hPa | 125.73 mm | - | - | - |
| 1777811039 | 28.33° C | 33% | 1016.4 hPa | 124.21 mm | - | - | - |
| 1777810739 | 28.33° C | 34% | 1016.4 hPa | 120.65 mm | - | - | - |
* Rain latest hour (hover to see other rain measurements)
** Current wind speed in m/s (hover to see current wind gust speed)